Weather History for Zephyrhills, FL

Change the Weather History Date:

Tuesday, February 19, 2013

  Actual Average (KPCM) Record (KPCM)
Temperature  
Mean Temperature 59 °F -  
Max Temperature 77 °F 77 °F 87 °F (1961)
Min Temperature 41 °F 53 °F 28 °F (1958)
Degree Days  
Heating Degree Days 6    
Growing Degree Days 9 (Base 50)    
Moisture  
Dew Point 48 °F    
Average Humidity 72    
Maximum Humidity 100    
Minimum Humidity 32    
Precipitation  
Precipitation 0.00 in - - ()
Sea Level Pressure  
Sea Level Pressure 30.17 in    
Wind  
Wind Speed 4 mph (SW)    
Max Wind Speed 18 mph    
Max Gust Speed 24 mph    
Visibility 10 miles    
Events      
Averages and records for this station are not official NWS values.
T = Trace of Precipitation, MM = Missing Value Source: NWS Daily Summary

Daily Weather History Graph

Daily Weather History Graph

Search for Another Location

Airport:

Trip Planner

Search our weather history database for the weather conditions in past years. The results will help you decide how hot, cold, wet, or windy it might be!

Date:

Astronomy

Feb. 19, 2013 Rise Set
Actual Time 7:02 AM EST 6:22 PM EST
Civil Twilight 6:38 AM EST 6:46 PM EST
Nautical Twilight 6:11 AM EST 7:13 PM EST
Astronomical Twilight 5:44 AM EST 7:41 PM EST
Moon 1:07 PM EST (2/19) 2:18 AM EST (2/19)
Length of Visible Light 12h 07m
Length of Day
11h 19m
Waxing Gibbous, 67% of the Moon is Illuminated
Feb 19
Waxing Gibbous
Feb 25
Full
Mar 4
Last Quarter
Mar 11
New
Mar 19
First Quarter

Hourly Weather History & Observations

Time (EST) Temp. Dew Point Humidity Pressure Visibility Wind Dir Wind Speed Gust Speed Precip Events Conditions
12:15 AM 50.0 °F 44.6 °F 82% 30.24 in 10.0 mi Calm Calm - N/A   Clear
12:35 AM 46.4 °F 42.8 °F 87% 30.25 in 10.0 mi Calm Calm - N/A   Clear
12:55 AM 46.4 °F 44.6 °F 93% 30.25 in 10.0 mi Calm Calm - N/A   Clear
1:35 AM 44.6 °F 42.8 °F 93% 30.25 in 10.0 mi Calm Calm - N/A   Clear
1:55 AM 44.6 °F 42.8 °F 93% 30.25 in 10.0 mi Calm Calm - N/A   Scattered Clouds
2:15 AM 44.6 °F 42.8 °F 93% 30.24 in 10.0 mi Calm Calm - N/A   Scattered Clouds
2:35 AM 42.8 °F 42.8 °F 100% 30.23 in 10.0 mi Calm Calm - N/A   Scattered Clouds
2:55 AM 42.8 °F 42.8 °F 100% 30.22 in 10.0 mi Calm Calm - N/A   Scattered Clouds
3:15 AM 42.8 °F 42.8 °F 100% 30.22 in 10.0 mi Calm Calm - N/A   Clear
3:35 AM 42.8 °F 42.8 °F 100% 30.21 in 10.0 mi Calm Calm - N/A   Clear
3:55 AM 42.8 °F 41.0 °F 93% 30.20 in 10.0 mi Calm Calm - N/A   Clear
4:15 AM 42.8 °F 42.8 °F 100% 30.20 in 10.0 mi Calm Calm - N/A   Clear
4:35 AM 42.8 °F 42.8 °F 100% 30.20 in 10.0 mi Calm Calm - N/A   Clear
4:55 AM 42.8 °F 42.8 °F 100% 30.20 in 10.0 mi Calm Calm - N/A   Scattered Clouds
5:15 AM 42.8 °F 41.0 °F 93% 30.20 in 10.0 mi Calm Calm - N/A   Clear
5:35 AM 42.8 °F 41.0 °F 93% 30.19 in 10.0 mi Calm Calm - N/A   Clear
5:55 AM 41.0 °F 41.0 °F 100% 30.19 in 10.0 mi Calm Calm - N/A   Clear
6:15 AM 42.8 °F 42.8 °F 100% 30.20 in 10.0 mi Calm Calm - N/A   Scattered Clouds
6:55 AM 44.6 °F 44.6 °F 100% 30.20 in 10.0 mi Calm Calm - N/A   Mostly Cloudy
7:15 AM 44.6 °F 44.6 °F 100% 30.20 in 10.0 mi Calm Calm - N/A   Scattered Clouds
7:35 AM 44.6 °F 44.6 °F 100% 30.19 in 10.0 mi Calm Calm - N/A   Clear
7:55 AM 48.2 °F 48.2 °F 100% 30.20 in 10.0 mi Calm Calm - N/A   Clear
8:15 AM 51.8 °F 50.0 °F 94% 30.20 in 10.0 mi Calm Calm - N/A   Clear
8:35 AM 57.2 °F 51.8 °F 82% 30.21 in 10.0 mi SSE 5.8 mph - N/A   Clear
8:55 AM 60.8 °F 51.8 °F 72% 30.21 in 10.0 mi SSE 9.2 mph - N/A   Clear
9:15 AM 62.6 °F 51.8 °F 68% 30.21 in 10.0 mi SSE 8.1 mph - N/A   Scattered Clouds
9:35 AM 66.2 °F 51.8 °F 60% 30.21 in 10.0 mi SSE 9.2 mph - N/A   Clear
9:55 AM 68.0 °F 51.8 °F 56% 30.21 in 10.0 mi South 9.2 mph - N/A   Clear
10:15 AM 69.8 °F 51.8 °F 53% 30.21 in 10.0 mi South 10.4 mph - N/A   Clear
10:35 AM 71.6 °F 50.0 °F 46% 30.21 in 10.0 mi South 12.7 mph 19.6 mph N/A   Clear
10:55 AM 73.4 °F 50.0 °F 44% 30.21 in 10.0 mi SSW 12.7 mph 18.4 mph N/A   Clear
11:15 AM 73.4 °F 50.0 °F 44% 30.20 in 10.0 mi South 12.7 mph 16.1 mph N/A   Unknown
11:35 AM 73.4 °F 50.0 °F 44% 30.20 in 10.0 mi SW 10.4 mph 17.3 mph N/A   Clear
11:55 AM 73.4 °F 48.2 °F 41% 30.20 in 10.0 mi SSW 11.5 mph - N/A   Clear
12:15 PM 77.0 °F 46.4 °F 34% 30.19 in 10.0 mi SSW 18.4 mph - N/A   Clear
12:35 PM 77.0 °F 46.4 °F 34% 30.18 in 10.0 mi SW 12.7 mph 20.7 mph N/A   Clear
12:55 PM 77.0 °F 44.6 °F 32% 30.17 in 10.0 mi SW 17.3 mph 23.0 mph N/A   Clear
1:15 PM 77.0 °F 44.6 °F 32% 30.15 in 10.0 mi SW 11.5 mph 21.9 mph N/A   Clear
1:35 PM 77.0 °F 46.4 °F 34% 30.15 in 10.0 mi SSW 16.1 mph 21.9 mph N/A   Scattered Clouds
1:55 PM 77.0 °F 46.4 °F 34% 30.14 in 10.0 mi SW 18.4 mph 23.0 mph N/A   Scattered Clouds
2:15 PM 77.0 °F 46.4 °F 34% 30.13 in - WSW 12.7 mph 24.2 mph N/A   Unknown
2:35 PM 77.0 °F 46.4 °F 34% 30.13 in 10.0 mi SW 11.5 mph 23.0 mph N/A   Scattered Clouds
2:55 PM 77.0 °F 46.4 °F 34% 30.12 in 10.0 mi West 16.1 mph 23.0 mph N/A   Mostly Cloudy
3:15 PM 77.0 °F 48.2 °F 36% 30.13 in 10.0 mi WSW 13.8 mph 23.0 mph N/A   Mostly Cloudy
3:35 PM 75.2 °F 50.0 °F 41% 30.11 in 10.0 mi West 13.8 mph 17.3 mph N/A   Scattered Clouds
3:55 PM 77.0 °F 50.0 °F 39% 30.11 in 10.0 mi SW 13.8 mph 19.6 mph N/A   Scattered Clouds
4:15 PM 77.0 °F 50.0 °F 39% 30.11 in 10.0 mi SW 16.1 mph 20.7 mph N/A   Scattered Clouds
4:35 PM 75.2 °F 50.0 °F 41% 30.11 in 10.0 mi WSW 12.7 mph 18.4 mph N/A   Clear
4:55 PM 73.4 °F 50.0 °F 44% 30.11 in 10.0 mi WSW 10.4 mph - N/A   Clear
5:15 PM 73.4 °F 51.8 °F 47% 30.11 in 10.0 mi WSW 8.1 mph - N/A   Scattered Clouds
5:35 PM 71.6 °F 51.8 °F 50% 30.11 in 10.0 mi SW 10.4 mph - N/A   Clear
5:55 PM 71.6 °F 51.8 °F 50% 30.12 in 10.0 mi WSW 9.2 mph - N/A   Clear
6:15 PM 69.8 °F 51.8 °F 53% 30.12 in 10.0 mi SW 8.1 mph - N/A   Clear
7:35 PM 62.6 °F 53.6 °F 72% 30.13 in 10.0 mi Calm Calm - N/A   Clear
7:55 PM 62.6 °F 55.4 °F 77% 30.13 in 10.0 mi Calm Calm - N/A   Clear
8:15 PM 62.6 °F 55.4 °F 77% 30.14 in 10.0 mi Calm Calm - N/A   Clear
8:35 PM 59.0 °F 53.6 °F 82% 30.14 in 10.0 mi Calm Calm - N/A   Clear
8:55 PM 59.0 °F 53.6 °F 82% 30.14 in 10.0 mi Calm Calm - N/A   Clear
9:15 PM 57.2 °F 53.6 °F 88% 30.14 in 10.0 mi Calm Calm - N/A   Clear
9:35 PM 55.4 °F 53.6 °F 94% 30.14 in 10.0 mi Calm Calm - N/A   Clear
9:55 PM 55.4 °F 55.4 °F 100% 30.13 in 10.0 mi Calm Calm - N/A   Clear
10:15 PM 55.4 °F 53.6 °F 94% 30.13 in 10.0 mi Calm Calm - N/A   Clear
10:35 PM 55.4 °F 55.4 °F 100% 30.13 in 10.0 mi Calm Calm - N/A   Clear
10:55 PM 53.6 °F 53.6 °F 100% 30.13 in 10.0 mi Calm Calm - N/A   Clear
11:15 PM 55.4 °F 55.4 °F 100% 30.12 in 10.0 mi Calm Calm - N/A   Clear
11:35 PM 55.4 °F 55.4 °F 100% 30.12 in 10.0 mi Calm Calm - N/A   Clear
11:55 PM 53.6 °F 53.6 °F 100% 30.11 in 10.0 mi Calm Calm - N/A   Clear